User: anonymous   Login
Location: Newark
(36.0797°N, 3.9744°E)
Time: 02:12:20
(UTC+00:00)
Language:

Explorer 7 - Orbit

View from above orbital plane
View from above orbital plane
View from above satellite
View from above satellite

Ground track
Ground track

The orbit data is extracted from the following two-line orbital elements,

1    22U 59009A   19347.48549265 -.00000033  00000-0  20608-4 0  9991
2    22  50.2850 259.2312 0139870 264.5064  93.9915 14.95006138197353
Epoch (UTC): 13 December 2019 11:39:06
Eccentricity: 0.0139870
inclination: 50.2850°
perigee height: 485 km
apogee height: 680 km
right ascension of ascending node: 259.2312°
argument of perigee: 264.5064°
revolutions per day: 14.95006138
mean anomaly at epoch: 93.9915°
orbit number at epoch: 19735

The dashed part of the orbit path shows where the satellite is in the earth's shadow,  

DLR